Regional Weather Roundup
Issued by NWS

Home | Current Version | Previous Version | Graphics & Text | Print | Product List | Glossary On
Versions: 1 2 3 4 5 6 7 8 9 10 11 12 13 14 15 16 17 18 19 20 21 22 23 24 25 26 27 28 29 30 31 32 33 34 35 36 37 38 39 40 41 42 43 44 45 46 47 48 49 50
000
ASUS43 KIND 260459
RWRIN

WEATHER ROUNDUP FOR INDIANA
NATIONAL WEATHER SERVICE INDIANAPOLIS IN
100 AM EDT SUN MAR 26 2017

NOTE: "FAIR" INDICATES FEW OR NO CLOUDS BELOW 12,000 FEET WITH NO
SIGNIFICANT WEATHER AND/OR OBSTRUCTIONS TO VISIBILITY.

* - STATION DOES NOT REPORT WEATHER SUCH AS PRECIPITATION OR FOG.

+ - STATION NOT QUALITY CONTROLLED BY THE NATIONAL WEATHER SERVICE.
    USE DATA WITH CAUTION...ESPECIALLY DEWPOINT AND RELATIVE
    HUMIDITY OBSERVATIONS.

INZ001>003-010>013-019-020-260600-
NORTHWEST INDIANA

CITY           SKY/WX    TMP DP  RH WIND       PRES   REMARKS
KNOX *+        CLOUDY    48  37  66 E13       29.97F
MONTICELLO +   LGT RAIN  52  51  95 E10G18    29.95F

$$

LMZ046-743>745-260600-
SOUTHERN LAKE MICHIGAN

STATION/POSITION TIME  TEMP    WIND        PRES    WAVE
                       AIR SEA DIR/SP/G            HT
                 (UTC) (F)     (DEG/KT/KT) (MB)    (FT)
BURNS HARBOR     0440   52     130/ 13/ 22 1014.9F
MICHIGAN CITY    0410   50     110/ 13/ 16   N/A

$$

INZ004-005-014>016-021>024-260600-
NORTH CENTRAL INDIANA

CITY           SKY/WX    TMP DP  RH WIND       PRES   REMARKS
GOSHEN         CLOUDY    45  40  82 E13       30.03F
PERU/GRISSOM   LGT RAIN  50  50 100 E9        29.97F
SOUTH BEND     LGT RAIN  45 N/A N/A E13       30.02S

$$

INZ006>009-017-018-025>027-260600-
NORTHEAST INDIANA

CITY           SKY/WX    TMP DP  RH WIND       PRES   REMARKS
ANGOLA *+      CLOUDY    39  39 100 CALM      30.07S
FORT WAYNE     LGT RAIN  43  39  86 E13       30.04F
KENDALLVILLE + CLOUDY    41  39  95 E8        30.06F

$$

INZ028-029-035-036-043>045-051>053-260600-
WEST CENTRAL INDIANA

CITY           SKY/WX    TMP DP  RH WIND       PRES   REMARKS
CRAWFORDSVL +  CLOUDY    58  55  91 SE10      29.94S
GREENCASTLE +  LGT RAIN  59  55  88 SE16G22   29.95S
LAFAYETTE      CLOUDY    60  56  86 SE7       29.92F
TERRE HAUTE    LGT RAIN  60  56  86 SE9       29.92S

$$

INZ030>032-037>040-046>048-054>057-064-065-260600-
CENTRAL INDIANA

CITY           SKY/WX    TMP DP  RH WIND       PRES   REMARKS
INDIANAPOLIS   CLOUDY    58  57  97 E8        29.96R
-EAGLE CREEK   CLOUDY    59  57  93 SE5       29.96S
KOKOMO +       LGT RAIN  51  49  92 E13       29.99F
SHELBYVILLE    LGT RAIN  61  55  81 SE9       29.98R

$$

INZ033-034-041-042-049-050-058-059-260600-
EAST CENTRAL INDIANA

CITY           SKY/WX    TMP DP  RH WIND       PRES   REMARKS
MUNCIE         CLOUDY    55  52  89 E7        30.00F
RICHMOND +     LGT RAIN  57  54  88 SW13      30.04R

$$

INZ060-061-067>069-081>083-085>088-260600-
SOUTHWEST INDIANA

CITY           SKY/WX    TMP DP  RH WIND       PRES   REMARKS
EVANSVILLE     RAIN      61  57  87 S12G21    29.93F
HUNTINGBURG *+ LGT RAIN  61  56  83 S10       29.95S

$$

INZ062-063-066-070>080-084-089>092-260600-
SOUTH CENTRAL AND SOUTHEAST INDIANA

CITY           SKY/WX    TMP DP  RH WIND       PRES   REMARKS
BLOOMINGTON    LGT RAIN  59  55  87 S8        29.96S
MADISON *+     CLOUDY    61  52  72 S10       30.03S

$$





USA.gov is the U.S. government's official web portal to all federal, state and local government web resources and services.